Location: ????????
(55.3155°N, 39.2900°E)
Time: 18:24:09
(UTC+00:00)

ACS3 Solar Sail - Pass Details

Date: 20 November 2025
Orbit: 889 x 1003 km, 97.3° (Epoch: 06 December)

Event Time Altitude Azimuth Distance (km) Brightness Sun altitude
Rises 03:38:16 0° 9° (N) 3,565 4.7 -12.0°
Reaches altitude 10° 03:42:14 10° 342° (NNW) 2,643 3.7 -11.5°
Maximum altitude 03:44:34 13° 319° (NW) 2,474 3.4 -11.2°
Enters shadow 03:45:28 12° 309° (NW) 2,508 3.4 -11.0°
